| time (UTC) | temp F | wind direction | speed MPH | gust MPH | rain 1hr in | rain 24hr in | rain mn in | humidity % | barometer mb |
| 20260506113045 | 38 | 0 | 0.0 | 0.0 | 0.00 | 0.00 | 0.00 | 85 | 1013.7 |
| 20260506111536 | 39 | 0 | 0.0 | 0.0 | 0.00 | 0.00 | 0.00 | 84 | 1013.5 |
| 20260506110041 | 40 | 0 | 0.0 | 1.0 | 0.00 | 0.00 | 0.00 | 84 | 1013.3 |
| 20260506104545 | 39 | 0 | 0.0 | 0.0 | 0.00 | 0.00 | 0.00 | 86 | 1013.1 |
| 20260506103038 | 39 | 0 | 0.0 | 0.0 | 0.00 | 0.00 | 0.00 | 84 | 1012.9 |
| 20260506101545 | 40 | 0 | 0.0 | 0.0 | 0.00 | 0.00 | 0.00 | 81 | 1012.8 |
| 20260506100035 | 41 | 0 | 0.0 | 0.0 | 0.00 | 0.00 | 0.00 | 81 | 1012.8 |
| 20260506094535 | 41 | 0 | 0.0 | 0.0 | 0.00 | 0.00 | 0.00 | 80 | 1012.6 |
| 20260506093035 | 41 | 0 | 0.0 | 0.0 | 0.00 | 0.00 | 0.00 | 81 | 1012.5 |
| 20260506091536 | 41 | 0 | 0.0 | 0.0 | 0.00 | 0.00 | 0.00 | 79 | 1012.5 |
| 20260506090036 | 42 | 0 | 0.0 | 1.0 | 0.00 | 0.00 | 0.00 | 78 | 1012.4 |
| 20260506084541 | 42 | 0 | 0.0 | 1.0 | 0.00 | 0.00 | 0.00 | 78 | 1012.4 |
| 20260506083034 | 43 | 0 | 0.0 | 0.0 | 0.00 | 0.00 | 0.00 | 75 | 1012.3 |
| 20260506081537 | 45 | 0 | 0.0 | 0.0 | 0.00 | 0.00 | 0.00 | 69 | 1012.2 |
| 20260506073037 | 45 | 0 | 0.0 | 1.0 | 0.00 | 0.00 | 0.00 | 71 | 1011.8 |
| 20260506071534 | 45 | 0 | 0.0 | 1.0 | 0.00 | 0.00 | 0.00 | 72 | 1011.8 |
| 20260506061538 | 47 | 0 | 0.0 | 1.0 | 0.00 | 0.00 | 0.00 | 66 | 1011.0 |
| 20260506044536 | 55 | 0 | 0.0 | 1.0 | 0.00 | 0.00 | 0.00 | 49 | 1010.0 |
| 20260506043036 | 56 | 0 | 0.0 | 1.0 | 0.00 | 0.00 | 0.00 | 48 | 1009.8 |
| 20260506041540 | 56 | 0 | 0.0 | 1.0 | 0.00 | 0.00 | 0.00 | 47 | 1009.6 |
| 20260506040041 | 57 | 0 | 0.0 | 1.0 | 0.00 | 0.00 | 0.00 | 47 | 1009.5 |
| 20260506034535 | 58 | 0 | 0.0 | 1.0 | 0.00 | 0.00 | 0.00 | 45 | 1009.2 |
| 20260506033035 | 58 | 0 | 0.0 | 2.0 | 0.00 | 0.00 | 0.00 | 44 | 1008.9 |
| 20260506031536 | 59 | 0 | 0.0 | 2.0 | 0.00 | 0.00 | 0.00 | 42 | 1008.8 |
| 20260506030037 | 60 | 165 | 0.0 | 4.0 | 0.00 | 0.00 | 0.00 | 40 | 1008.6 |
| 20260506024537 | 61 | 60 | 1.0 | 5.0 | 0.00 | 0.00 | 0.00 | 39 | 1008.5 |
| 20260506023054 | 61 | 0 | 1.0 | 6.0 | 0.00 | 0.00 | 0.00 | 37 | 1008.3 |
| 20260506021540 | 62 | 89 | 1.0 | 7.0 | 0.00 | 0.00 | 0.00 | 36 | 1008.1 |
| 20260506020035 | 63 | 11 | 2.0 | 8.0 | 0.00 | 0.00 | 0.00 | 35 | 1008.0 |
| 20260506014538 | 64 | 321 | 2.0 | 10.0 | 0.00 | 0.00 | 0.00 | 34 | 1007.9 |
| 20260506013036 | 64 | 17 | 2.0 | 9.0 | 0.00 | 0.00 | 0.00 | 33 | 1007.9 |
| 20260506011535 | 65 | 97 | 3.0 | 10.0 | 0.00 | 0.00 | 0.00 | 33 | 1007.8 |
| 20260506010048 | 67 | 0 | 4.0 | 13.0 | 0.00 | 0.00 | 0.00 | 34 | 1007.7 |
| 20260506004537 | 68 | 75 | 2.0 | 6.0 | 0.00 | 0.00 | 0.00 | 34 | 1007.6 |
| 20260506003035 | 68 | 292 | 2.0 | 14.0 | 0.00 | 0.00 | 0.00 | 34 | 1007.6 |
| 20260506001542 | 68 | 79 | 2.0 | 12.0 | 0.00 | 0.00 | 0.00 | 33 | 1007.5 |
| 20260506000041 | 68 | 13 | 3.0 | 12.0 | 0.00 | 0.00 | 0.00 | 35 | 1007.4 |
| 20260505234556 | 69 | 57 | 4.0 | 13.0 | 0.00 | 0.00 | 0.00 | 32 | 1007.5 |
| 20260505233040 | 70 | 72 | 2.0 | 15.0 | 0.00 | 0.00 | 0.00 | 33 | 1007.5 |
| 20260505231537 | 70 | 0 | 2.0 | 11.0 | 0.00 | 0.00 | 0.00 | 34 | 1007.3 |
| 20260505230034 | 70 | 86 | 3.0 | 10.0 | 0.00 | 0.00 | 0.00 | 29 | 1007.5 |
| 20260505224537 | 71 | 86 | 2.0 | 6.0 | 0.00 | 0.00 | 0.00 | 29 | 1007.5 |
| 20260505223040 | 71 | 111 | 1.0 | 10.0 | 0.00 | 0.00 | 0.00 | 29 | 1007.7 |
| 20260505221536 | 71 | 313 | 2.0 | 13.0 | 0.00 | 0.00 | 0.00 | 30 | 1007.7 |
| 20260505220034 | 71 | 60 | 4.0 | 11.0 | 0.00 | 0.00 | 0.00 | 28 | 1007.7 |
| 20260505214559 | 70 | 122 | 6.0 | 15.0 | 0.00 | 0.00 | 0.00 | 28 | 1007.8 |
| 20260505213051 | 71 | 49 | 2.0 | 9.0 | 0.00 | 0.00 | 0.00 | 28 | 1007.9 |
| 20260505211536 | 70 | 128 | 1.0 | 10.0 | 0.00 | 0.00 | 0.00 | 30 | 1008.0 |
| 20260505210035 | 71 | 179 | 2.0 | 8.0 | 0.00 | 0.00 | 0.00 | 30 | 1008.0 |
| 20260505204542 | 70 | 155 | 3.0 | 11.0 | 0.00 | 0.00 | 0.00 | 32 | 1008.3 |
| 20260505203040 | 70 | 338 | 2.0 | 14.0 | 0.00 | 0.00 | 0.00 | 27 | 1008.3 |
| 20260505201539 | 70 | 23 | 5.0 | 13.0 | 0.00 | 0.00 | 0.00 | 30 | 1008.5 |
| 20260505200039 | 69 | 225 | 5.0 | 14.0 | 0.00 | 0.00 | 0.00 | 28 | 1008.3 |
| 20260505194544 | 70 | 44 | 4.0 | 10.0 | 0.00 | 0.00 | 0.00 | 30 | 1008.4 |
| 20260505193037 | 70 | 186 | 4.0 | 10.0 | 0.00 | 0.00 | 0.00 | 30 | 1008.3 |
| 20260505191535 | 70 | 20 | 4.0 | 12.0 | 0.00 | 0.00 | 0.00 | 30 | 1008.3 |
| 20260505190039 | 69 | 32 | 2.0 | 14.0 | 0.00 | 0.00 | 0.00 | 31 | 1008.5 |
| 20260505184536 | 70 | 144 | 2.0 | 9.0 | 0.00 | 0.00 | 0.00 | 32 | 1008.4 |
| 20260505183037 | 69 | 35 | 1.0 | 9.0 | 0.00 | 0.00 | 0.00 | 34 | 1008.5 |
| 20260505181535 | 68 | 28 | 3.0 | 11.0 | 0.00 | 0.00 | 0.00 | 35 | 1008.6 |
| 20260505174555 | 68 | 113 | 2.0 | 7.0 | 0.00 | 0.00 | 0.00 | 35 | 1008.5 |
| 20260505173043 | 68 | 101 | 2.0 | 8.0 | 0.00 | 0.00 | 0.00 | 34 | 1008.5 |
| 20260505171554 | 66 | 31 | 3.0 | 7.0 | 0.00 | 0.00 | 0.00 | 32 | 1008.5 |
| 20260505170035 | 66 | 232 | 1.0 | 7.0 | 0.00 | 0.00 | 0.00 | 34 | 1008.6 |
| 20260505164536 | 66 | 0 | 0.0 | 5.0 | 0.00 | 0.00 | 0.00 | 38 | 1008.5 |
| 20260505163036 | 65 | 70 | 2.0 | 9.0 | 0.00 | 0.00 | 0.00 | 41 | 1008.5 |
| 20260505161538 | 64 | 145 | 1.0 | 5.0 | 0.00 | 0.00 | 0.00 | 44 | 1008.5 |
| 20260505153035 | 57 | 120 | 1.0 | 3.0 | 0.00 | 0.00 | 0.00 | 62 | 1008.2 |
| 20260505151536 | 55 | 125 | 1.0 | 3.0 | 0.00 | 0.00 | 0.00 | 65 | 1008.2 |
| 20260505124546 | 42 | 0 | 0.0 | 2.0 | 0.00 | 0.00 | 0.00 | 85 | 1007.1 |
| 20260505123039 | 42 | 0 | 0.0 | 1.0 | 0.00 | 0.00 | 0.00 | 85 | 1007.0 |
| 20260505121536 | 42 | 0 | 0.0 | 2.0 | 0.00 | 0.00 | 0.00 | 83 | 1006.8 |
| 20260505120038 | 46 | 0 | 0.0 | 1.0 | 0.00 | 0.00 | 0.00 | 76 | 1006.7 |
| 20260505114535 | 46 | 55 | 0.0 | 0.0 | 0.00 | 0.00 | 0.00 | 77 | 1006.6 |